Weather History for KCOM - October, 2012

Change the Weather History Date:

Sunday, October 7, 2012

  Actual Average (KABI) Record (KABI)
Temperature  
Mean Temperature 46 °F 68 °F  
Max Temperature 50 °F 80 °F 99 °F (1979)
Min Temperature 43 °F 57 °F 39 °F (2000)
Degree Days  
Heating Degree Days 18 2  
Month to date heating degree days 10  
Since 1 July heating degree days 21  
Cooling Degree Days 0 5  
Month to date cooling degree days 41  
Year to date cooling degree days 2312  
Moisture  
Dew Point 36 °F    
Average Humidity 67    
Maximum Humidity 91    
Minimum Humidity 56    
Precipitation  
Precipitation 0.00 in 0.09 in 1.57 in (1887)
Month to date precipitation 0.61  
Year to date precipitation 19.81  
Sea Level Pressure  
Sea Level Pressure 30.25 in    
Wind  
Wind Speed 11 mph (NE)    
Max Wind Speed 18 mph    
Max Gust Speed 22 mph    
Visibility 10 miles    
Events      
T = Trace of Precipitation, MM = Missing Value Source: NWS Daily Summary

Daily Weather History Graph

Daily Weather History Graph

Search for Another Location

Airport or City:

Trip Planner

Search our weather history database for the weather conditions in past years. The results will help you decide how hot, cold, wet, or windy it might be!

Date:

Astronomy

Oct. 07, 2012 Rise Set
Actual Time 7:35 AM CDT 7:14 PM CDT
Civil Twilight 7:11 AM CDT 7:38 PM CDT
Nautical Twilight 6:43 AM CDT 8:06 PM CDT
Astronomical Twilight 6:14 AM CDT 8:35 PM CDT
Moon No Moon Rise 1:59 PM CDT (10/7)
Length of Visible Light 12h 27m
Length of Day
11h 38m
Waning Gibbous, 56% of the Moon is Illuminated
Oct 7
Waning Gibbous
Oct 8
Last Quarter
Oct 15
New
Oct 21
First Quarter
Oct 29
Full

Hourly Weather History & Observations

Time (CDT) Temp. Windchill Dew Point Humidity Pressure Visibility Wind Dir Wind Speed Gust Speed Precip Events Conditions
12:15 AM 44.6 °F 38.8 °F 42.1 °F 91% 30.25 in 7.0 mi North 11.5 mph 16.1 mph N/A   Overcast
12:35 AM 44.6 °F 38.4 °F 42.3 °F 91% 30.25 in 10.0 mi North 12.7 mph - N/A   Overcast
12:55 AM 44.4 °F 38.2 °F 41.7 °F 90% 30.25 in 10.0 mi NNE 12.7 mph 16.1 mph N/A   Overcast
1:15 AM 44.1 °F 36.2 °F 40.6 °F 88% 30.24 in 10.0 mi NNE 18.4 mph - N/A   Overcast
1:35 AM 44.1 °F 36.2 °F 40.3 °F 87% 30.25 in 10.0 mi NNE 18.4 mph - N/A   Overcast
1:55 AM 43.9 °F 37.2 °F 39.9 °F 86% 30.26 in 10.0 mi NNE 13.8 mph 21.9 mph N/A   Overcast
2:15 AM 43.9 °F 36.8 °F 39.7 °F 85% 30.26 in 10.0 mi NE 15.0 mph - N/A   Overcast
2:35 AM 43.9 °F 37.5 °F 39.6 °F 85% 30.27 in 10.0 mi NNE 12.7 mph - N/A   Overcast
2:55 AM 43.9 °F 37.2 °F 38.8 °F 82% 30.27 in 10.0 mi NNE 13.8 mph - N/A   Overcast
3:15 AM 44.1 °F 38.6 °F 38.3 °F 80% 30.26 in 10.0 mi NNE 10.4 mph 19.6 mph N/A   Overcast
3:35 AM 44.6 °F 38.4 °F 37.8 °F 77% 30.26 in 10.0 mi NNE 12.7 mph - N/A   Overcast
3:55 AM 44.6 °F 38.4 °F 36.7 °F 74% 30.26 in 10.0 mi NNE 12.7 mph - N/A   Overcast
4:15 AM 44.8 °F 38.0 °F 36.1 °F 72% 30.26 in 10.0 mi NNE 15.0 mph - N/A   Overcast
4:35 AM 44.8 °F 39.4 °F 36.0 °F 71% 30.26 in 10.0 mi NNE 10.4 mph - N/A   Overcast
4:55 AM 44.8 °F 39.0 °F 35.6 °F 70% 30.26 in 10.0 mi NNE 11.5 mph - N/A   Overcast
5:15 AM 45.0 °F 40.6 °F 35.4 °F 69% 30.27 in 10.0 mi NNE 8.1 mph - N/A   Overcast
5:35 AM 45.0 °F 38.9 °F 35.2 °F 69% 30.26 in 10.0 mi NNE 12.7 mph - N/A   Overcast
5:55 AM 45.1 °F 39.9 °F 35.1 °F 68% 30.27 in 10.0 mi NNE 10.4 mph - N/A   Overcast
6:15 AM 45.1 °F 40.3 °F 35.1 °F 68% 30.27 in 10.0 mi NNE 9.2 mph - N/A   Overcast
6:35 AM 45.5 °F 40.3 °F 34.9 °F 66% 30.28 in 10.0 mi NNE 10.4 mph - N/A   Overcast
6:55 AM 45.5 °F 39.9 °F 34.9 °F 66% 30.28 in 10.0 mi NNE 11.5 mph - N/A   Overcast
7:15 AM 45.5 °F 39.6 °F 34.7 °F 66% 30.28 in 10.0 mi NNE 12.7 mph 16.1 mph N/A   Overcast
7:35 AM 45.5 °F 39.6 °F 34.2 °F 65% 30.28 in 10.0 mi NNE 12.7 mph - N/A   Overcast
7:55 AM 45.3 °F 40.1 °F 34.5 °F 66% 30.28 in 10.0 mi NE 10.4 mph - N/A   Overcast
8:15 AM 45.5 °F 40.3 °F 34.9 °F 66% 30.29 in 10.0 mi NE 10.4 mph - N/A   Overcast
8:35 AM 45.5 °F 40.8 °F 35.1 °F 67% 30.28 in 10.0 mi NNE 9.2 mph - N/A   Overcast
8:55 AM 45.7 °F 40.6 °F 35.4 °F 67% 30.29 in 10.0 mi NE 10.4 mph - N/A   Overcast
9:15 AM 45.9 °F 40.4 °F 35.4 °F 67% 30.29 in 10.0 mi NE 11.5 mph - N/A   Overcast
9:35 AM 46.2 °F 42.7 °F 35.6 °F 66% 30.30 in 10.0 mi NE 6.9 mph - N/A   Overcast
9:55 AM 46.4 °F 41.1 °F 36.0 °F 67% 30.30 in 10.0 mi NNE 11.5 mph - N/A   Overcast
10:15 AM 46.6 °F - 36.1 °F 67% 30.30 in 10.0 mi NE 9.2 mph - N/A   Overcast
10:35 AM 46.8 °F - 36.1 °F 67% 30.30 in 10.0 mi NNE 10.4 mph - N/A   Overcast
10:55 AM 46.9 °F - 36.3 °F 67% 30.30 in 10.0 mi NNE 9.2 mph - N/A   Overcast
11:15 AM 47.3 °F - 36.5 °F 66% 30.30 in 10.0 mi NE 6.9 mph - N/A   Overcast
11:35 AM 47.8 °F - 36.7 °F 65% 30.29 in 10.0 mi NNE 9.2 mph - N/A   Overcast
11:55 AM 48.2 °F - 36.7 °F 64% 30.28 in 10.0 mi ENE 8.1 mph - N/A   Overcast
12:15 PM 48.7 °F - 36.9 °F 64% 30.27 in 10.0 mi NE 10.4 mph - N/A   Overcast
12:35 PM 49.1 °F - 37.0 °F 63% 30.27 in 10.0 mi NE 12.7 mph - N/A   Overcast
12:55 PM 48.7 °F - 36.9 °F 64% 30.27 in 10.0 mi NNE 8.1 mph - N/A   Overcast
1:15 PM 48.4 °F - 36.7 °F 64% 30.26 in 10.0 mi NNE 8.1 mph - N/A   Overcast
1:35 PM 48.2 °F - 36.5 °F 64% 30.26 in 10.0 mi NE 5.8 mph - N/A   Overcast
1:55 PM 48.6 °F - 36.5 °F 63% 30.25 in 10.0 mi NNE 11.5 mph - N/A   Overcast
2:35 PM 49.1 °F - 35.6 °F 60% 30.22 in 10.0 mi NNE 6.9 mph - N/A   Overcast
2:55 PM 49.1 °F - 35.6 °F 60% 30.21 in 10.0 mi NE 8.1 mph - N/A   Overcast
3:15 PM 49.3 °F - 34.9 °F 58% 30.21 in 10.0 mi NNE 6.9 mph - N/A   Overcast
3:35 PM 49.5 °F - 34.5 °F 56% 30.21 in 10.0 mi NNE 8.1 mph - N/A   Overcast
3:55 PM 50.0 °F - 34.7 °F 56% 30.20 in 10.0 mi NE 9.2 mph - N/A   Overcast
4:15 PM 49.6 °F - 34.5 °F 56% 30.20 in 10.0 mi NE 5.8 mph - N/A   Overcast
4:35 PM 49.8 °F - 35.2 °F 57% 30.20 in 10.0 mi NNE 8.1 mph - N/A   Overcast
4:55 PM 49.6 °F - 35.4 °F 58% 30.20 in 10.0 mi NNE 11.5 mph - N/A   Overcast
5:15 PM 49.3 °F - 35.1 °F 58% 30.20 in 10.0 mi NNE 6.9 mph - N/A   Overcast
5:35 PM 49.1 °F - 35.2 °F 59% 30.20 in 10.0 mi NE 9.2 mph - N/A   Overcast
5:55 PM 48.7 °F - 35.6 °F 60% 30.20 in 10.0 mi NNE 8.1 mph - N/A   Overcast
6:15 PM 48.4 °F - 35.8 °F 62% 30.21 in 10.0 mi NE 6.9 mph - N/A   Overcast
6:35 PM 48.2 °F - 36.1 °F 63% 30.21 in 10.0 mi NNE 9.2 mph - N/A   Overcast
6:55 PM 48.0 °F - 35.4 °F 62% 30.23 in 10.0 mi North 9.2 mph - N/A   Overcast
7:15 PM 47.5 °F - 35.6 °F 63% 30.24 in 10.0 mi NNE 8.1 mph - N/A   Overcast
7:35 PM 47.3 °F - 35.1 °F 62% 30.23 in 10.0 mi NE 9.2 mph - N/A   Overcast
7:55 PM 47.3 °F - 35.2 °F 63% 30.24 in 10.0 mi NE 6.9 mph - N/A   Overcast
8:15 PM 47.3 °F - 35.2 °F 63% 30.24 in 10.0 mi NE 4.6 mph - N/A   Overcast
8:55 PM 47.3 °F - 35.4 °F 63% 30.23 in 10.0 mi East 4.6 mph - N/A   Overcast
9:15 PM 47.3 °F - 35.4 °F 63% 30.24 in 10.0 mi NE 4.6 mph - N/A   Overcast
9:35 PM 47.3 °F - 35.2 °F 63% 30.25 in 10.0 mi NE 5.8 mph - N/A   Overcast
9:55 PM 47.3 °F - 35.1 °F 62% 30.26 in 10.0 mi NNE 4.6 mph - N/A   Overcast
10:15 PM 47.3 °F - 34.9 °F 62% 30.26 in 10.0 mi NNE 8.1 mph - N/A   Overcast
10:35 PM 46.9 °F - 34.2 °F 61% 30.25 in 10.0 mi NE 3.5 mph - N/A   Overcast
10:55 PM 46.9 °F - 34.2 °F 61% 30.25 in 10.0 mi NE 3.5 mph - N/A   Overcast
11:15 PM 46.9 °F - 34.0 °F 61% 30.25 in 10.0 mi NE 3.5 mph - N/A   Overcast
11:35 PM 46.8 °F - 33.6 °F 60% 30.25 in 10.0 mi ENE 3.5 mph - N/A   Overcast
11:55 PM 46.6 °F - 33.4 °F 60% 30.24 in 10.0 mi NNE 3.5 mph - N/A   Overcast